Location: Stuttgart
(48.8069°N, 9.1544°E)
Time: 02:51:16
(UTC+02:00)

ISS - Pass Details

Date: 17 May 2021
Orbit: 417 x 422 km, 51.6° (Epoch: 15 June)

Event Time Altitude Azimuth Distance (km) Brightness Sun altitude
Rises 22:02:30 0° 233° (SW) 2,355 0.2 -8.8°
Reaches altitude 10° 22:04:36 10° 229° (SW) 1,495 -0.9 -9.1°
Maximum altitude 22:07:53 53° 151° (SSE) 524 -3.6 -9.4°
Drops below altitude 10° 22:11:11 10° 74° (ENE) 1,505 -1.2 -9.8°
Sets 22:13:19 0° 70° (ENE) 2,373 -0.2 -10.1°
